Time,TemperatureF,DewpointF,PressureIn,WindDirection,WindDirectionDegrees,WindSpeedMPH,WindSpeedGustMPH,Humidity,HourlyPrecipIn,Conditions,Clouds,dailyrainin,SoftwareType,DateUTC
2013-08-17 00:00:00,60.4,43.7,22.63,North,11,0.0,0.0,54,0.00,,---,0.00,VWS V14.01,2013-08-17 07:00:00,
2013-08-17 00:20:00,59.7,43.1,22.63,North,11,0.0,0.0,54,0.00,,---,0.00,VWS V14.01,2013-08-17 07:20:00,
2013-08-17 00:40:00,59.7,43.1,22.63,North,11,0.0,0.0,54,0.00,,---,0.00,VWS V14.01,2013-08-17 07:40:00,
2013-08-17 01:00:00,59.5,42.9,22.63,North,11,0.0,0.0,54,0.00,,---,0.00,VWS V14.01,2013-08-17 08:00:00,
2013-08-17 01:20:00,59.0,42.4,22.63,North,11,0.0,0.0,54,0.00,,---,0.00,VWS V14.01,2013-08-17 08:20:00,
2013-08-17 01:40:00,58.6,42.5,22.63,North,11,0.0,0.0,55,0.00,,---,0.00,VWS V14.01,2013-08-17 08:40:00,
2013-08-17 02:00:00,58.8,42.7,22.63,North,11,0.0,0.0,55,0.00,,---,0.00,VWS V14.01,2013-08-17 09:00:00,
2013-08-17 02:20:00,57.9,41.9,22.63,North,11,0.0,0.0,55,0.00,,---,0.00,VWS V14.01,2013-08-17 09:20:00,
2013-08-17 02:40:00,58.1,42.0,22.63,North,11,0.0,0.0,55,0.00,,---,0.00,VWS V14.01,2013-08-17 09:40:00,
2013-08-17 03:00:00,58.3,41.7,22.63,North,11,0.0,0.0,54,0.00,,---,0.00,VWS V14.01,2013-08-17 10:00:00,
2013-08-17 03:20:00,59.2,41.6,22.63,North,11,0.0,0.0,52,0.00,,---,0.00,VWS V14.01,2013-08-17 10:20:00,
2013-08-17 03:40:00,58.1,40.6,22.63,North,11,0.0,0.0,52,0.00,,---,0.00,VWS V14.01,2013-08-17 10:40:00,
2013-08-17 04:00:00,57.9,38.9,22.63,North,11,0.0,0.0,49,0.00,,---,0.00,VWS V14.01,2013-08-17 11:00:00,
2013-08-17 04:20:00,57.0,39.6,22.63,North,11,0.0,0.0,52,0.00,,---,0.00,VWS V14.01,2013-08-17 11:20:00,
2013-08-17 04:40:00,56.7,39.2,22.63,North,11,0.0,0.0,52,0.00,,---,0.00,VWS V14.01,2013-08-17 11:40:00,
2013-08-17 05:00:00,56.7,39.2,22.63,North,11,0.0,0.0,52,0.00,,---,0.00,VWS V14.01,2013-08-17 12:00:00,
2013-08-17 05:20:00,56.3,37.9,22.63,South,185,0.0,3.1,50,0.00,,---,0.00,VWS V14.01,2013-08-17 12:20:00,
2013-08-17 05:40:00,56.7,38.2,22.63,South,185,0.0,0.0,50,0.00,,---,0.00,VWS V14.01,2013-08-17 12:40:00,
2013-08-17 06:00:00,57.0,38.6,22.63,South,185,0.0,0.0,50,0.00,,---,0.00,VWS V14.01,2013-08-17 13:00:00,
2013-08-17 06:20:00,58.1,38.0,22.63,South,185,0.0,0.0,47,0.00,,---,0.00,VWS V14.01,2013-08-17 13:20:00,
2013-08-17 06:40:00,58.8,39.7,22.63,South,185,0.0,0.0,49,0.00,,---,0.00,VWS V14.01,2013-08-17 13:40:00,
2013-08-17 07:00:00,60.1,40.9,22.63,South,185,0.0,0.0,49,0.00,,---,0.00,VWS V14.01,2013-08-17 14:00:00,
2013-08-17 07:20:00,63.1,42.0,22.63,South,185,0.0,0.0,46,0.00,,---,0.00,VWS V14.01,2013-08-17 14:20:00,
2013-08-17 07:40:00,66.7,44.8,22.63,South,185,0.0,0.0,45,0.00,,---,0.00,VWS V14.01,2013-08-17 14:40:00,
2013-08-17 08:00:00,70.0,43.9,22.63,NNE,15,0.0,2.7,39,0.00,,---,0.00,VWS V14.01,2013-08-17 15:00:00,
2013-08-17 08:20:00,73.8,46.6,22.63,NNE,15,0.0,4.0,38,0.00,,---,0.00,VWS V14.01,2013-08-17 15:20:00,
2013-08-17 08:40:00,77.0,49.5,22.63,North,353,0.0,3.6,38,0.00,,---,0.00,VWS V14.01,2013-08-17 15:40:00,
2013-08-17 09:00:00,81.5,52.7,22.63,SSE,149,2.7,2.7,37,0.00,,---,0.00,VWS V14.01,2013-08-17 16:00:00,
2013-08-17 09:20:00,85.8,55.8,22.63,South,188,2.2,5.8,36,0.00,,---,0.00,VWS V14.01,2013-08-17 16:20:00,
2013-08-17 09:40:00,86.7,56.6,22.63,SSW,208,4.0,6.3,36,0.00,,---,0.00,VWS V14.01,2013-08-17 16:40:00,
2013-08-17 10:00:00,88.5,57.4,22.63,SSW,205,5.4,5.8,35,0.00,,---,0.00,VWS V14.01,2013-08-17 17:00:00,
2013-08-17 10:20:00,90.1,58.8,22.63,SW,218,3.1,6.3,35,0.00,,---,0.00,VWS V14.01,2013-08-17 17:20:00,
2013-08-17 10:40:00,91.9,59.6,22.63,SW,236,5.4,6.3,34,0.00,,---,0.00,VWS V14.01,2013-08-17 17:40:00,
2013-08-17 11:00:00,93.2,60.7,22.63,SSW,204,5.8,10.1,34,0.00,,---,0.00,VWS V14.01,2013-08-17 18:00:00,
2013-08-17 11:20:00,92.8,60.4,22.63,SSW,195,5.4,10.1,34,0.00,,---,0.00,VWS V14.01,2013-08-17 18:20:00,
2013-08-17 11:40:00,92.5,60.1,22.63,ESE,122,3.6,11.0,34,0.00,,---,0.00,VWS V14.01,2013-08-17 18:40:00,
2013-08-17 12:00:00,92.5,60.1,22.63,SE,125,5.4,11.0,34,0.00,,---,0.00,VWS V14.01,2013-08-17 19:00:00,
2013-08-17 12:20:00,93.2,60.7,22.63,SE,128,7.6,11.0,34,0.00,,---,0.00,VWS V14.01,2013-08-17 19:20:00,
2013-08-17 12:40:00,93.9,61.3,22.63,ESE,109,4.0,12.3,34,0.00,,---,0.00,VWS V14.01,2013-08-17 19:40:00,
2013-08-17 13:00:00,93.2,60.7,22.63,SSE,149,4.5,8.7,34,0.00,,---,0.00,VWS V14.01,2013-08-17 20:00:00,
2013-08-17 13:20:00,96.3,63.4,22.63,WSW,249,3.1,11.0,34,0.00,,---,0.00,VWS V14.01,2013-08-17 20:20:00,
2013-08-17 13:40:00,102.0,66.6,22.63,ESE,106,6.3,8.7,32,0.00,,---,0.00,VWS V14.01,2013-08-17 20:40:00,
2013-08-17 14:00:00,97.5,63.6,22.63,SSE,155,2.7,11.9,33,0.00,,---,0.00,VWS V14.01,2013-08-17 21:00:00,
2013-08-17 14:20:00,100.8,65.5,22.63,SSW,196,6.3,16.3,32,0.00,,---,0.00,VWS V14.01,2013-08-17 21:20:00,
2013-08-17 14:40:00,103.1,67.6,22.63,SE,130,4.0,8.3,32,0.00,,---,0.00,VWS V14.01,2013-08-17 21:40:00,
2013-08-17 15:00:00,102.0,66.6,22.63,SSW,196,3.1,10.1,32,0.00,,---,0.00,VWS V14.01,2013-08-17 22:00:00,
2013-08-17 15:20:00,103.6,68.0,22.63,SSW,207,2.7,7.6,32,0.00,,---,0.00,VWS V14.01,2013-08-17 22:20:00,
2013-08-17 15:40:00,100.6,68.0,22.63,WSW,240,4.5,11.0,35,0.00,,---,0.00,VWS V14.01,2013-08-17 22:40:00,
2013-08-17 16:00:00,99.3,65.2,22.63,SW,227,15.0,15.0,33,0.00,,---,0.00,VWS V14.01,2013-08-17 23:00:00,
2013-08-17 16:20:00,100.0,65.8,22.63,SW,218,4.9,15.0,33,0.00,,---,0.00,VWS V14.01,2013-08-17 23:20:00,
2013-08-17 16:40:00,97.9,63.9,22.63,SSE,152,8.3,12.8,33,0.00,,---,0.00,VWS V14.01,2013-08-17 23:40:00,
2013-08-17 17:00:00,96.3,63.4,22.63,SSW,209,2.7,15.4,34,0.00,,---,0.00,VWS V14.01,2013-08-18 00:00:00,
2013-08-17 17:20:00,95.2,62.4,22.63,SW,218,3.6,8.7,34,0.00,,---,0.00,VWS V14.01,2013-08-18 00:20:00,
2013-08-17 17:40:00,88.3,57.2,22.63,SSW,198,6.3,11.0,35,0.00,,---,0.00,VWS V14.01,2013-08-18 00:40:00,
2013-08-17 18:00:00,85.1,55.2,22.63,South,176,8.3,10.1,36,0.00,,---,0.00,VWS V14.01,2013-08-18 01:00:00,
2013-08-17 18:20:00,83.5,53.8,22.63,South,186,8.1,8.7,36,0.00,,---,0.00,VWS V14.01,2013-08-18 01:20:00,
2013-08-17 18:40:00,82.0,53.2,22.63,SW,217,4.9,8.7,37,0.00,,---,0.00,VWS V14.01,2013-08-18 01:40:00,
2013-08-17 19:00:00,80.4,51.8,22.63,SW,218,3.6,7.6,37,0.00,,---,0.00,VWS V14.01,2013-08-18 02:00:00,
2013-08-17 19:20:00,77.4,49.8,22.63,SSW,203,0.0,4.9,38,0.00,,---,0.00,VWS V14.01,2013-08-18 02:20:00,
2013-08-17 19:40:00,74.5,47.2,22.63,SSE,149,0.0,2.7,38,0.00,,---,0.00,VWS V14.01,2013-08-18 02:40:00,
2013-08-17 20:00:00,72.3,46.0,22.63,NE,36,0.0,2.7,39,0.00,,---,0.00,VWS V14.01,2013-08-18 03:00:00,
2013-08-17 20:20:00,71.1,44.9,22.63,North,353,0.0,0.0,39,0.00,,---,0.00,VWS V14.01,2013-08-18 03:20:00,
2013-08-17 20:40:00,69.8,43.8,22.63,NW,305,0.0,2.2,39,0.00,,---,0.00,VWS V14.01,2013-08-18 03:40:00,
2013-08-17 21:00:00,69.4,44.1,22.63,NNW,331,0.0,0.0,40,0.00,,---,0.00,VWS V14.01,2013-08-18 04:00:00,
2013-08-17 21:20:00,68.5,44.6,22.63,North,353,0.0,0.0,42,0.00,,---,0.00,VWS V14.01,2013-08-18 04:20:00,
2013-08-17 21:40:00,66.6,44.6,22.63,North,353,0.0,0.0,45,0.00,,---,0.00,VWS V14.01,2013-08-18 04:40:00,
2013-08-17 22:00:00,66.0,45.8,22.63,North,353,0.0,0.0,48,0.00,,---,0.00,VWS V14.01,2013-08-18 05:00:00,
2013-08-17 22:20:00,65.1,45.0,22.63,North,353,0.0,0.0,48,0.00,,---,0.00,VWS V14.01,2013-08-18 05:20:00,
2013-08-17 22:40:00,64.8,44.6,22.63,North,353,0.0,0.0,48,0.00,,---,0.00,VWS V14.01,2013-08-18 05:40:00,
2013-08-17 23:00:00,64.8,44.6,22.63,North,353,0.0,0.0,48,0.00,,---,0.00,VWS V14.01,2013-08-18 06:00:00,
2013-08-17 23:20:00,64.2,44.1,22.63,North,353,0.0,0.0,48,0.00,,---,0.00,VWS V14.01,2013-08-18 06:20:00,
2013-08-17 23:40:00,64.4,44.3,22.63,North,353,0.0,0.0,48,0.00,,---,0.00,VWS V14.01,2013-08-18 06:40:00,